Wind_Speed
23 21 18 17 18 18 19 19 19 18 20 22 22 20 18 20 20 19 18 18 18 17 17 18 17 17 18 18 17 18 19 19 20 20 20 20 20 20 20 20 21 20 20 21
25 23 21 20 20 20 20 20 20 20 20 22 23 22 21 22 22 20 20 20 19 19 19 19 19 19 19 18 18 18 19 20 20 21 20 21 21 21 21 21 21 21 21 22
25 22 23 23 21 20 20 20 21 22 23 24 24 25 23 24 23 22 21 21 21 21 20 20 20 20 19 19 19 20 20 21 21 21 21 22 22 22 22 22 23 22 23 23
25 24 26 25 22 22 21 20 20 22 23 24 23 24 23 22 22 22 22 21 21 22 21 21 21 21 20 20 20 21 21 22 22 22 22 22 23 23 23 23 23 24 24 24
25 25 26 24 23 22 22 22 23 23 24 24 25 25 24 23 22 22 22 22 23 23 22 22 22 22 22 22 22 23 22 22 23 23 23 23 23 24 24 24 25 25 25 26
26 26 24 22 23 23 23 25 26 25 25 25 26 26 26 25 23 22 23 23 24 23 23 24 24 23 24 24 25 25 25 25 25 25 25 24 24 25 25 26 26 27 26 26
26 26 24 22 23 24 24 27 28 27 25 25 27 27 27 27 25 24 24 24 24 24 24 24 24 24 25 25 25 26 26 26 25 25 26 26 26 27 27 27 28 27 26 27
26 26 26 26 26 27 28 29 29 28 27 27 28 28 28 28 27 26 26 26 25 25 25 25 25 25 25 26 26 26 26 26 26 27 27 27 28 28 28 29 29 28 28 28
27 27 28 30 30 30 30 30 30 30 29 29 29 29 29 28 28 27 27 26 25 26 25 25 25 25 26 26 26 27 27 27 27 27 28 29 30 29 29 29 28 28 29 29
29 29 29 30 31 31 31 31 31 31 30 30 29 29 28 28 27 27 27 26 25 26 26 26 26 26 27 27 27 27 27 27 27 28 29 29 30 30 29 29 29 29 29 30
31 30 31 31 31 30 31 32 31 30 30 29 29 28 28 27 27 27 26 26 26 26 26 27 28 27 27 27 28 28 28 27 28 28 28 28 29 29 30 30 30 31 31 30
32 33 33 33 32 31 30 30 30 31 31 29 28 27 27 26 26 26 26 27 27 27 28 28 28 28 28 28 28 28 28 28 28 28 28 28 29 29 29 30 30 31 30 29
33 33 34 33 33 32 32 32 32 31 30 29 28 27 27 27 26 26 27 28 28 29 28 28 28 28 28 28 28 28 28 28 27 27 28 28 29 29 29 29 29 30 29 29
34 34 34 34 33 33 32 32 31 30 30 30 30 29 28 28 28 28 28 29 29 29 29 28 29 29 28 29 28 28 29 29 28 29 29 29 30 30 30 29 29 29 29 29
35 34 34 35 34 33 33 33 32 31 31 32 31 30 30 30 30 30 30 30 30 30 29 29 29 29 29 30 29 30 29 30 29 29 29 30 30 31 30 30 29 29 29 29
34 34 35 35 34 33 33 33 32 31 32 32 31 31 31 31 31 31 31 31 30 30 30 30 29 29 30 30 29 30 30 30 30 30 30 30 30 30 31 30 29 28 28 28
32 33 34 34 34 33 33 32 32 31 31 32 32 31 31 31 31 31 31 31 31 30 29 29 29 30 30 30 29 30 30 30 30 30 30 29 29 30 30 29 28 28 27 28
29 30 31 31 31 31 31 32 31 30 31 32 32 32 32 32 32 32 32 32 32 31 30 29 29 30 30 30 30 30 30 30 31 30 30 29 29 30 30 29 28 28 28 27
28 28 28 29 30 30 31 31 31 31 31 31 31 32 32 32 32 32 32 32 32 31 30 30 30 31 30 30 30 30 30 31 31 30 30 30 31 28 28 28 28 28 27 27
28 28 28 28 29 29 29 30 31 31 31 31 31 32 32 32 33 33 32 31 31 31 31 31 31 31 31 31 31 31 31 30 30 30 30 29 28 27 27 28 28 28 27 26
28 28 28 28 29 29 29 29 30 30 30 30 30 31 31 31 32 32 32 32 31 31 32 32 32 32 32 31 30 30 30 29 29 29 28 28 28 27 27 27 27 28 27 26
26 26 27 27 28 28 28 28 28 29 29 29 29 30 30 30 30 31 31 32 31 31 31 32 32 32 32 31 30 29 28 28 29 29 29 29 28 28 28 27 26 27 27 26
24 24 24 25 25 26 27 27 28 28 28 28 28 28 29 29 29 30 30 30 31 31 31 31 31 31 30 29 29 28 28 28 28 28 29 28 28 27 27 26 26 26 26 26
22 22 23 23 23 24 24 25 25 25 26 26 27 28 28 28 29 29 29 30 30 30 29 29 29 29 29 29 29 29 28 28 27 28 28 27 28 27 27 26 26 26 26 26
21 22 22 22 22 23 23 24 24 25 25 25 25 26 27 27 27 27 27 27 27 27 27 28 28 28 28 28 28 28 27 27 27 27 27 27 27 27 26 25 25 25 25 25
21 21 22 22 22 22 22 23 23 24 24 24 24 25 25 25 25 26 26 27 27 26 26 26 27 27 27 26 26 26 25 25 25 25 25 25 25 25 24 24 23 23 23 23
20 20 20 21 21 21 22 22 22 22 22 22 22 22 22 23 24 25 25 25 26 25 25 25 26 26 25 26 26 25 25 24 24 24 24 24 24 24 23 23 23 23 23 23
Wind_Direction
239 237 242 251 253 252 253 253 260 266 275 285 283 279 284 290 289 288 291 297 295 294 297 298 300 303 305 307 308 311 314 317 318 318 318 318 317 317 317 317 318 318 318 318
241 242 241 244 248 250 254 257 262 267 270 273 274 278 281 283 286 290 290 291 290 291 292 296 298 299 299 301 304 308 312 315 315 316 315 314 315 314 315 317 318 318 317 317
239 244 249 248 251 253 252 254 259 263 267 267 274 279 280 281 284 284 287 285 286 288 290 293 295 296 294 296 300 305 309 311 313 313 313 313 312 312 313 315 316 315 315 316
242 243 247 249 252 251 252 251 252 255 259 262 269 274 275 279 283 282 285 287 286 289 290 293 291 295 292 295 299 303 306 309 310 310 309 310 309 308 308 310 311 312 312 313
242 245 250 250 251 251 249 249 249 253 256 258 265 272 274 275 277 281 284 286 287 289 291 291 290 294 294 296 296 299 301 304 307 306 306 307 307 307 307 308 308 309 309 310
242 246 250 251 248 246 245 251 253 256 257 259 265 269 275 277 278 280 281 284 285 287 287 288 290 292 294 294 296 298 300 301 303 304 304 304 305 305 305 305 306 307 308 308
242 245 249 250 249 249 246 248 254 258 260 261 266 270 274 277 279 279 280 281 284 285 285 287 289 291 292 293 295 296 298 299 300 303 303 303 304 304 305 304 304 305 305 306
243 243 244 245 246 247 250 253 256 260 262 265 268 271 273 275 277 278 279 281 281 283 285 286 287 289 291 292 293 294 296 297 298 300 300 301 302 302 302 304 302 302 303 305
244 244 243 241 242 246 251 254 256 260 263 266 270 272 273 275 276 276 277 277 280 282 284 285 286 287 290 292 292 293 294 295 296 297 298 298 298 299 300 301 302 303 303 304
241 244 246 246 247 249 251 253 257 259 262 266 270 272 272 273 273 275 276 277 279 282 283 284 284 286 288 290 291 292 293 295 295 297 298 297 297 297 298 299 301 302 303 303
243 245 247 249 251 252 254 256 258 260 262 265 270 270 270 271 271 272 275 277 278 281 283 284 285 286 288 289 291 292 293 295 296 296 296 296 297 298 298 298 298 299 301 303
244 247 249 251 253 255 255 256 258 260 263 265 268 267 269 271 271 272 274 276 278 280 282 283 285 285 286 287 290 291 292 294 295 295 295 296 297 299 299 298 298 299 300 300
247 250 253 256 255 255 257 259 261 262 263 264 265 266 267 270 272 273 275 277 278 280 281 282 285 285 286 286 289 291 292 293 294 294 294 295 297 298 299 298 299 300 301 301
247 249 251 254 256 257 258 260 260 261 261 263 263 264 266 270 273 275 276 278 279 281 281 282 285 285 286 287 289 290 291 292 293 294 295 295 297 298 298 297 299 300 301 302
250 251 253 255 257 258 259 260 259 260 261 261 262 263 266 270 273 274 276 277 279 281 282 283 284 284 283 285 287 289 290 291 293 295 296 297 298 297 296 295 297 299 300 301
250 250 253 255 257 258 260 259 257 258 261 263 263 264 266 269 272 274 275 276 277 279 279 280 281 282 283 285 286 289 292 293 295 296 295 297 298 299 299 297 297 298 300 302
250 251 253 255 257 259 259 259 259 259 261 263 263 264 266 268 271 273 274 276 277 278 278 279 280 280 283 285 287 290 293 293 294 295 295 296 298 299 298 298 297 297 298 300
251 252 254 255 256 258 259 260 261 260 262 263 263 263 264 267 269 271 272 273 275 279 279 279 280 280 282 286 288 289 290 291 294 295 296 297 298 298 298 298 298 297 296 297
253 254 254 255 256 258 259 259 260 260 262 263 263 264 265 266 268 270 271 272 274 277 277 278 280 282 283 284 284 287 289 290 291 292 295 297 298 297 297 297 298 298 297 297
254 255 256 257 258 259 260 260 260 261 262 264 265 265 266 268 269 270 271 273 275 276 277 278 280 281 282 282 282 284 287 289 290 290 291 294 295 297 296 296 297 297 296 296
255 256 257 257 258 260 261 262 261 262 264 265 266 267 268 270 271 272 272 273 275 277 278 279 279 280 282 283 283 284 285 286 288 290 292 294 295 295 296 297 297 297 295 294
258 258 258 258 259 261 262 263 263 264 263 264 265 267 269 270 271 272 272 272 273 275 276 277 278 279 280 281 282 282 284 285 286 288 291 292 294 294 295 297 299 298 296 294
258 259 260 260 261 263 263 263 264 264 264 265 266 268 270 271 271 272 273 274 274 274 275 275 277 278 279 280 281 282 283 284 286 288 290 292 294 295 298 297 298 298 296 295
258 260 261 262 262 262 262 263 264 264 264 266 268 270 271 271 272 274 275 275 275 275 275 276 277 278 279 280 281 282 283 284 285 287 289 290 293 294 296 296 298 298 296 296
260 261 262 262 262 263 264 265 266 266 267 269 270 271 272 271 271 273 274 275 276 276 276 277 278 279 279 281 282 283 283 284 285 286 288 290 292 293 295 296 297 298 298 297
261 261 261 262 263 263 264 266 268 270 270 270 271 272 272 270 269 271 273 275 276 277 278 278 278 277 279 280 281 282 283 284 284 285 287 289 290 292 294 295 298 300 301 300
261 261 262 262 263 265 266 268 268 269 270 271 270 271 271 271 271 272 273 274 275 277 278 278 278 278 278 281 282 281 282 283 284 285 286 288 290 291 292 294 296 298 298 299
Height
5880 5882 5885 5886 5888 5889 5890 5891 5891 5890 5890 5887 5885 5883 5881 5881 5881 5881 5879 5879 5878 5878 5877 5876 5875 5874 5872 5871 5869 5867 5865 5863 5861 5859 5857 5854 5852 5850 5847 5845 5843 5840 5838 5835
5874 5877 5879 5881 5882 5884 5885 5886 5887 5886 5886 5883 5880 5879 5878 5878 5876 5876 5876 5875 5875 5874 5873 5872 5871 5870 5868 5867 5866 5864 5862 5860 5858 5856 5853 5851 5849 5846 5844 5841 5838 5836 5833 5831
5869 5872 5873 5875 5877 5879 5880 5881 5882 5881 5881 5879 5876 5875 5874 5874 5873 5873 5873 5871 5870 5869 5869 5868 5867 5865 5864 5863 5862 5860 5858 5856 5854 5851 5849 5847 5844 5842 5840 5837 5835 5832 5829 5826
5864 5867 5867 5872 5873 5873 5874 5874 5875 5874 5872 5871 5870 5870 5870 5870 5869 5869 5868 5867 5866 5865 5863 5862 5861 5860 5859 5858 5856 5855 5853 5851 5849 5847 5845 5842 5840 5838 5835 5832 5830 5827 5824 5822
5857 5859 5861 5865 5866 5867 5868 5867 5867 5867 5866 5865 5866 5866 5865 5865 5865 5864 5863 5862 5861 5860 5859 5858 5856 5855 5854 5853 5851 5849 5847 5846 5844 5842 5840 5837 5835 5832 5830 5827 5825 5822 5819 5816
5850 5852 5855 5858 5858 5858 5861 5860 5860 5860 5860 5860 5860 5860 5859 5859 5859 5859 5858 5857 5856 5855 5854 5852 5851 5849 5848 5847 5845 5844 5842 5841 5838 5836 5834 5832 5830 5827 5825 5822 5819 5816 5813 5810
5843 5845 5849 5849 5850 5852 5854 5853 5852 5853 5854 5854 5854 5855 5854 5853 5853 5853 5852 5851 5851 5850 5849 5848 5846 5845 5843 5841 5840 5838 5836 5835 5832 5830 5828 5826 5824 5821 5818 5816 5813 5810 5807 5805
5836 5839 5843 5841 5842 5844 5845 5846 5846 5847 5848 5848 5847 5848 5847 5847 5847 5847 5846 5845 5844 5844 5843 5842 5841 5839 5838 5836 5834 5832 5830 5828 5826 5824 5822 5819 5817 5815 5812 5809 5806 5803 5801 5798
5829 5832 5831 5833 5834 5836 5837 5838 5839 5840 5840 5841 5841 5841 5841 5841 5840 5840 5840 5839 5838 5837 5837 5836 5834 5833 5831 5829 5828 5826 5824 5822 5820 5818 5815 5813 5810 5808 5805 5802 5800 5797 5794 5791
5821 5822 5823 5824 5825 5827 5829 5830 5831 5832 5833 5833 5833 5834 5834 5834 5833 5833 5832 5832 5831 5831 5830 5829 5827 5826 5824 5823 5821 5819 5817 5815 5813 5811 5809 5806 5803 5800 5798 5795 5792 5789 5787 5784
5813 5814 5815 5816 5817 5819 5821 5822 5823 5824 5825 5826 5826 5826 5826 5826 5826 5825 5825 5825 5825 5824 5823 5822 5820 5819 5818 5816 5814 5812 5810 5808 5806 5804 5802 5799 5796 5793 5790 5788 5785 5783 5780 5776
5804 5805 5806 5808 5809 5811 5812 5813 5815 5816 5817 5817 5818 5818 5818 5818 5818 5818 5818 5817 5817 5816 5815 5814 5813 5812 5810 5809 5807 5805 5803 5801 5799 5797 5794 5792 5789 5786 5783 5781 5778 5775 5772 5769
5795 5797 5798 5799 5801 5802 5804 5805 5806 5807 5808 5809 5810 5810 5810 5810 5810 5810 5810 5810 5809 5808 5807 5807 5805 5804 5802 5801 5799 5797 5795 5793 5791 5789 5786 5784 5781 5779 5776 5774 5771 5768 5764 5762
5786 5788 5790 5791 5792 5794 5796 5797 5798 5799 5800 5801 5802 5802 5803 5802 5802 5803 5802 5802 5801 5800 5799 5798 5797 5796 5795 5793 5792 5790 5788 5786 5783 5781 5779 5776 5774 5771 5769 5766 5764 5761 5757 5754
5777 5779 5781 5783 5784 5786 5787 5788 5789 5790 5791 5792 5793 5794 5795 5795 5795 5795 5795 5794 5793 5792 5791 5790 5790 5788 5787 5786 5784 5783 5780 5778 5775 5773 5771 5769 5766 5764 5761 5759 5756 5753 5750 5747
5767 5770 5772 5773 5775 5777 5777 5779 5780 5781 5782 5783 5784 5785 5786 5786 5786 5786 5786 5785 5785 5784 5783 5782 5782 5780 5779 5777 5776 5774 5772 5770 5767 5765 5763 5761 5758 5756 5753 5751 5748 5745 5742 5740
5758 5760 5762 5764 5766 5767 5768 5770 5771 5772 5773 5774 5775 5776 5777 5777 5778 5777 5777 5777 5776 5775 5774 5774 5773 5772 5771 5769 5767 5766 5764 5762 5759 5757 5755 5752 5750 5748 5745 5742 5740 5738 5735 5733
5750 5751 5753 5755 5757 5758 5759 5761 5762 5763 5764 5765 5766 5767 5768 5768 5768 5768 5768 5768 5767 5767 5766 5766 5765 5764 5762 5761 5759 5758 5756 5754 5752 5749 5747 5744 5742 5740 5737 5734 5732 5730 5727 5725
5742 5743 5745 5747 5748 5750 5751 5752 5753 5755 5756 5757 5757 5757 5758 5759 5759 5759 5759 5759 5759 5759 5758 5757 5757 5755 5754 5753 5751 5750 5748 5746 5744 5742 5739 5736 5733 5731 5730 5727 5725 5722 5720 5717
5735 5736 5737 5739 5740 5741 5742 5744 5745 5746 5747 5747 5748 5748 5749 5750 5750 5750 5750 5750 5750 5750 5749 5749 5748 5747 5745 5744 5742 5741 5739 5737 5736 5734 5732 5729 5726 5723 5722 5720 5717 5715 5712 5710
5727 5729 5730 5731 5732 5733 5734 5735 5735 5736 5738 5738 5739 5739 5740 5741 5741 5741 5741 5741 5741 5740 5740 5739 5738 5737 5736 5734 5733 5732 5730 5729 5727 5726 5724 5722 5719 5717 5715 5712 5710 5707 5705 5703
5720 5721 5722 5723 5724 5725 5726 5726 5726 5727 5729 5730 5730 5731 5731 5731 5731 5731 5731 5731 5731 5731 5731 5730 5729 5728 5726 5725 5724 5723 5722 5720 5719 5718 5716 5714 5712 5710 5708 5705 5702 5699 5697 5694
5713 5714 5715 5716 5717 5717 5718 5718 5719 5719 5720 5721 5721 5722 5722 5722 5722 5722 5722 5722 5722 5722 5721 5721 5720 5719 5717 5716 5715 5714 5713 5712 5711 5709 5708 5706 5704 5702 5700 5697 5695 5692 5690 5687
5707 5708 5708 5709 5709 5710 5711 5711 5711 5711 5712 5712 5713 5713 5714 5714 5714 5713 5713 5713 5713 5712 5712 5711 5711 5710 5708 5707 5706 5705 5704 5703 5702 5701 5699 5698 5696 5694 5692 5690 5688 5685 5682 5679
5701 5701 5702 5702 5703 5703 5704 5704 5704 5704 5704 5705 5705 5705 5705 5705 5705 5705 5705 5704 5704 5703 5703 5703 5702 5701 5700 5698 5697 5697 5696 5695 5694 5693 5692 5690 5688 5687 5685 5683 5680 5678 5675 5673
5695 5695 5695 5696 5696 5697 5697 5697 5697 5697 5697 5697 5697 5697 5697 5697 5697 5697 5697 5696 5696 5695 5695 5694 5693 5692 5691 5690 5689 5689 5688 5687 5686 5685 5684 5682 5681 5679 5677 5676 5673 5671 5669 5666
5688 5688 5689 5689 5689 5690 5690 5690 5690 5690 5690 5690 5690 5690 5690 5689 5689 5689 5689 5689 5688 5687 5687 5686 5685 5684 5683 5683 5682 5681 5680 5679 5678 5677 5676 5675 5674 5672 5670 5669 5667 5665 5663 5660